STARLINK-2057 (47666 NORAD) Tracking and Keplerian Element Data

This shows tracking and keplerian element data for the satellite.

Feedback or suggestion? Click here.




ElementValue
Catalog47666
NameSTARLINK-2057
Epoch Orbit177
Epoch Day105.91667824
Epoch Year2021
RAAN169.0704
Inclination53.0457
Eccentricity0.0002382
Argument of Perigee22.6543
Mean Anonmoly29.9035
Mean Motion15.73219832
Decay Rate0.0002076
L11 47666U 21012AY 21105.91667824 .00020760 00000-0 15181-3 0 9991
L22 47666 53.0457 169.0704 0002382 22.6543 29.9035 15.73219832 1773

Live tracking and technical data element details for STARLINK-2057 (NORAD 47666). STARLINK-2057 can be tracked NOW for your location showing map with azimuth and elevation plus other details from your city location.

Track the satellite on the map from your city or location and see movement details for azimuth, elevation, latitude, longitude, range, height, and movement on the map or in text.







IsCatalogInMostPopularTable: catalog: 47666, numindb: 19
Update: records affected: 1



GetName: 47666 STARLINK-2057

Hit Count: updated at: Fri, 16 Apr 2021 12:09:19 GMT